This is the latest recevied weather packets stored in our database for station/object HS3MXC-2. If no packets are shown the sender has not sent any weather packets the latest 10 day(s).
| Time | Temp. | Humidity | Pressure | Rain* | Wind** | Luminosity | Snow |
|---|---|---|---|---|---|---|---|
| 1777264234 | 25° C | 41% | 995.9 hPa | - | - | - | - |
| 1777263927 | 25° C | 42% | 996 hPa | - | - | - | - |
| 1777263619 | 25° C | 42% | 996.1 hPa | - | - | - | - |
| 1777263312 | 25° C | 42% | 996.2 hPa | - | - | - | - |
| 1777263005 | 25° C | 42% | 996.3 hPa | - | - | - | - |
| 1777262698 | 25.56° C | 43% | 996.2 hPa | - | - | - | - |
| 1777259233 | 25.56° C | 45% | 997.1 hPa | - | - | - | - |
| 1777258926 | 25.56° C | 46% | 997.1 hPa | - | - | - | - |
| 1777258619 | 25.56° C | 48% | 997.1 hPa | - | - | - | - |
| 1777258002 | 25° C | 42% | 997 hPa | - | - | - | - |
| 1777257695 | 25.56° C | 43% | 997.1 hPa | - | - | - | - |
| 1777256773 | 26.11° C | 46% | 997 hPa | - | - | - | - |
| 1777256466 | 26.11° C | 48% | 997.1 hPa | - | - | - | - |
| 1777256159 | 25.56° C | 46% | 997.2 hPa | - | - | - | - |
| 1777255852 | 25.56° C | 46% | 997.2 hPa | - | - | - | - |
| 1777255543 | 25.56° C | 46% | 997.2 hPa | - | - | - | - |
| 1777254924 | 26.11° C | 48% | 997.2 hPa | - | - | - | - |
| 1777254617 | 26.11° C | 50% | 997.1 hPa | - | - | - | - |
| 1777254310 | 26.67° C | 53% | 997.1 hPa | - | - | - | - |
| 1777253999 | 27.22° C | 56% | 997.1 hPa | - | - | - | - |
| 1777253692 | 27.22° C | 59% | 997.1 hPa | - | - | - | - |
| 1777253385 | 27.78° C | 62% | 997.1 hPa | - | - | - | - |
| 1777253078 | 28.89° C | 67% | 997 hPa | - | - | - | - |
| 1777252771 | 30° C | 71% | 997 hPa | - | - | - | - |
| 1777252464 | 29.44° C | 72% | 996.9 hPa | - | - | - | - |
* Rain since midnight (hover to see other rain measurements)
** Current wind speed in m/s (hover to see current wind gust speed)